sat.trackr.live / text

‹ back to catalog

STARLINK-31310

NORAD 59092 · 2024-041U

PAYLOAD ACTIVE UNKNOWN

§ Identity

Operator
Country
US
Launch date
2024-02-29
Launch site
AFETR
Launch vehicle
Mass (kg)
RCS (m²)

Purposes: comms

External: N2YO · Heavens-Above · Gunter

§ Orbital elements

Epoch: 2026-09-20T12:32:26.459808Z

Period
94.27 min
Inclination
43.0028°
Eccentricity
0.0001045
Mean motion
15.27578962 rev/d
Perigee alt
482.3 km
Apogee alt
483.8 km
Semi-major
6,861.2 km
B*
-1.3314e-6
RAAN
290.8197°
Arg perigee
280.4495°
Mean anomaly
79.6239°
Rev number
14,406

§ Raw data

STARLINK-313101 59092U 24041U   26263.52252847 -.00000299  00000+0 -13314-5 0  99982 59092  43.0028 290.8197 0001045 280.4495  79.6239 15.27578962144065

JSON: /api/v1/satellites/59092 · /tle

For live sub-satellite position, see the globe view (requires WebGL).

§ Visibility from observer

Set your observer location to see the next 7 days of passes ≥ 10°. The values pass through the URL so the page stays shareable.

No JS? Fill the form by hand. The geolocation button needs JavaScript.